This demonstration page uses our WeatherBlox Daily Observations layout. Learn more.

Left ArrowRight Arrow

38.20091, -84.87328

Hourly Observations for August 9, 2021

Temp ( °F °C ) Dew Point ( °F °C ) Humidity (%) Winds ( mph kmh ) Pressure ( in mb ) Visibility ( mi km ) Precip ( " mm )
12:53 am 00:53 Clear 74 23.3 69 20.6 85 85 SSE 5 7 30.03 1017 10 16 0.00 0.00
1:53 am 01:53 Clear 72 22.2 67 19.4 84 84 S 3 6 30.03 1017 10 16 0.00 0.00
2:53 am 02:53 Clear 75 23.9 68 20 79 79 S 6 9 30.00 1016 10 16 0.00 0.00
3:53 am 03:53 Clear 74 23.3 68 20 82 82 S 7 11 29.99 1016 10 16 0.00 0.00
4:53 am 04:53 Clear 75 23.9 69 20.6 82 82 S 9 15 29.98 1015 10 16 0.00 0.00
5:53 am 05:53 Clear 73 22.8 68 20 84 84 SSW 3 6 30.00 1016 10 16 0.00 0.00
6:53 am 06:53 Sunny 71 21.7 68 20 90 90 SE 3 6 30.01 1016 10 16 0.00 0.00
7:53 am 07:53 Sunny 74 23.3 69 20.6 85 85 S 7 11 30.04 1017 10 16 0.00 0.00
8:53 am 08:53 Sunny 76 24.4 69 20.6 79 79 SSW 10 17 30.05 1018 10 16 0.00 0.00
9:53 am 09:53 Mostly Cloudy 79 26.1 69 20.6 72 72 SSW 12 19 30.06 1018 10 16 0.00 0.00
10:02 am 10:02 Mostly Cloudy 79 26.1 69 20.6 72 72 SSW 15 24 30.04 1017 10 16 0.00 0.00
10:17 am 10:17 Mostly Cloudy 79 26.1 69 20.6 72 72 SSW 13 20 30.04 1017 10 16 0.00 0.00
10:53 am 10:53 Partly Cloudy 79 26.1 70 21.1 74 74 S 13 20 30.05 1018 10 16 0.00 0.00
11:42 am 11:42 Cloudy with Thunderstorms 78 25.6 69 20.6 74 74 SSW 9 15 30.06 1018 10 16 0.00 0.00
11:53 am 11:53 Cloudy with Thunderstorms 76 24.4 70 21.1 82 82 WSW 8 13 30.07 1018 10 16 0.00 0.00
12:09 pm 12:09 Cloudy with Strong Thunderstorms 73 22.8 71 21.7 94 94 W 7 11 30.08 1019 2 3 0.07 1.78
12:11 pm 12:11 Cloudy with Nearby Thunderstorms 73 22.8 71 21.7 94 94 WSW 5 7 30.07 1018 1 2 0.12 3.05
12:15 pm 12:15 Cloudy with Heavy Rain 73 22.8 71 21.7 94 94 SW 8 13 30.08 1019 1 1 0.15 3.81
12:21 pm 12:21 Cloudy with Nearby Thunderstorms 73 22.8 71 21.7 94 94 SSW 7 11 30.08 1019 1 2 0.18 4.57
12:26 pm 12:26 Mostly Cloudy with Nearby Thunderstorms 73 22.8 71 21.7 94 94 SSW 7 11 30.07 1018 3 5 0.18 4.57
12:44 pm 12:44 Mostly Cloudy with Rain 73 22.8 71 21.7 94 94 SW 5 7 30.07 1018 3 4 0.21 5.33
12:53 pm 12:53 Mostly Cloudy with Nearby Thunderstorms 73 22.8 71 21.7 94 94 SSW 6 9 30.06 1018 2 3 0.24 6.10
1:04 pm 13:04 Mostly Cloudy with Nearby Thunderstorms 73 22.8 71 21.7 94 94 Calm 30.04 1017 3 5 0.02 0.51
1:11 pm 13:11 Mostly Cloudy with Light Rain 73 22.8 71 21.7 94 94 SSE 5 7 30.04 1017 5 8 0.03 0.76
1:53 pm 13:53 Cloudy with Rain 73 22.8 70 21.1 90 90 SW 7 11 30.06 1018 2 3 0.08 2.03
2:05 pm 14:05 Cloudy with Light Rain 73 22.8 71 21.7 94 94 SSW 8 13 30.05 1018 9 14 0.01 0.25
2:53 pm 14:53 Mostly Cloudy with Light Rain 72 22.2 70 21.1 94 94 SW 7 11 30.06 1018 7 11 0.07 1.78
3:53 pm 15:53 Mostly Sunny 72 22.2 71 21.7 97 97 SSE 10 17 29.98 1015 10 16 0.02 0.51
4:39 pm 16:39 Mostly Cloudy 74 23.3 71 21.7 91 91 SSE 10 17 29.98 1015 10 16 0.00 0.00
4:53 pm 16:53 Cloudy 74 23.3 71 21.7 91 91 S 9 15 30.01 1016 10 16 0.00 0.00
5:23 pm 17:23 Cloudy 75 23.9 71 21.7 88 88 S 7 11 30.02 1017 10 16 0.00 0.00
5:35 pm 17:35 Cloudy 74 23.3 71 21.7 91 91 S 6 9 30.02 1017 10 16 0.00 0.00
5:53 pm 17:53 Mostly Cloudy 74 23.3 71 21.7 91 91 SSE 7 11 30.03 1017 10 16 0.00 0.00
6:23 pm 18:23 Mostly Cloudy 74 23.3 71 21.7 91 91 SE 6 9 30.00 1016 10 16 0.00 0.00
6:45 pm 18:45 Partly Cloudy 74 23.3 71 21.7 91 91 S 6 9 30.00 1016 10 16 0.00 0.00
6:53 pm 18:53 Mostly Sunny 74 23.3 71 21.7 91 91 SSE 6 9 30.01 1016 10 16 0.00 0.00
7:53 pm 19:53 Sunny 75 23.9 71 21.7 88 88 S 9 15 30.01 1016 10 16 0.00 0.00
8:53 pm 20:53 Clear 74 23.3 70 21.1 88 88 S 8 13 30.03 1017 10 16 0.00 0.00
9:53 pm 21:53 Clear 73 22.8 70 21.1 90 90 S 7 11 30.04 1017 10 16 0.00 0.00
10:53 pm 22:53 Clear 73 22.8 70 21.1 90 90 S 8 13 30.04 1017 10 16 0.00 0.00
11:53 pm 23:53 Clear 72 22.2 70 21.1 94 94 SSW 6 9 30.05 1018 10 16 0.00 0.00

Powered by AerisWeather